Time,TemperatureF,DewpointF,PressureIn,WindDirection,WindDirectionDegrees,WindSpeedMPH,WindSpeedGustMPH,Humidity,HourlyPrecipIn,Conditions,Clouds,dailyrainin,SoftwareType,DateUTC
2013-04-24 01:00:00,6.0,-3.0,-100.00,West,279,14.0,26.0,66,-99.99,,,-99.99,,2013-04-24 05:00:00,
2013-04-24 01:42:00,6.0,-3.0,-100.00,West,279,14.0,26.0,66,-99.99,,,-99.99,,2013-04-24 05:42:00,
2013-04-24 01:52:00,6.0,-3.0,-100.00,West,279,14.0,26.0,66,-99.99,,,-99.99,,2013-04-24 05:52:00,
2013-04-24 04:00:00,5.0,-3.0,-100.00,SW,236,19.0,26.0,69,-99.99,,,-99.99,,2013-04-24 08:00:00,
2013-04-24 04:42:00,5.0,-3.0,-100.00,SW,236,19.0,26.0,69,-99.99,,,-99.99,,2013-04-24 08:42:00,
2013-04-24 04:52:00,5.0,-3.0,-100.00,SW,236,19.0,26.0,69,-99.99,,,-99.99,,2013-04-24 08:52:00,
2013-04-24 06:00:00,7.0,-7.0,-100.00,WSW,246,8.0,13.0,50,-99.99,,,-99.99,,2013-04-24 10:00:00,
2013-04-24 06:42:00,7.0,-7.0,-100.00,WSW,246,8.0,13.0,50,-99.99,,,-99.99,,2013-04-24 10:42:00,
2013-04-24 06:53:00,7.0,-7.0,-100.00,WSW,246,8.0,13.0,50,-99.99,,,-99.99,,2013-04-24 10:53:00,
2013-04-24 08:00:00,9.0,-10.0,-100.00,West,264,11.0,20.0,41,-99.99,,,-99.99,,2013-04-24 12:00:00,
2013-04-24 08:42:00,9.0,-10.0,-100.00,West,264,11.0,20.0,41,-99.99,,,-99.99,,2013-04-24 12:42:00,
2013-04-24 08:52:00,9.0,-10.0,-100.00,West,264,11.0,20.0,41,-99.99,,,-99.99,,2013-04-24 12:52:00,
2013-04-24 09:00:00,8.0,-4.0,-100.00,West,264,11.0,22.0,58,-99.99,,,-99.99,,2013-04-24 13:00:00,
2013-04-24 09:42:00,8.0,-4.0,-100.00,West,264,11.0,22.0,58,-99.99,,,-99.99,,2013-04-24 13:42:00,
2013-04-24 09:52:00,8.0,-4.0,-100.00,West,264,11.0,22.0,58,-99.99,,,-99.99,,2013-04-24 13:52:00,
2013-04-24 13:00:00,12.0,6.0,-100.00,WSW,256,15.0,30.0,77,-99.99,,,-99.99,,2013-04-24 17:00:00,
2013-04-24 13:42:00,12.0,6.0,-100.00,WSW,256,15.0,30.0,77,-99.99,,,-99.99,,2013-04-24 17:42:00,
2013-04-24 13:52:00,12.0,6.0,-100.00,WSW,256,15.0,30.0,77,-99.99,,,-99.99,,2013-04-24 17:52:00,
2013-04-24 14:00:00,14.0,8.0,-100.00,WNW,295,14.0,27.0,77,-99.99,,,-99.99,,2013-04-24 18:00:00,
2013-04-24 14:43:00,14.0,8.0,-100.00,WNW,295,14.0,27.0,77,-99.99,,,-99.99,,2013-04-24 18:43:00,
2013-04-24 14:52:00,14.0,8.0,-100.00,WNW,295,14.0,27.0,77,-99.99,,,-99.99,,2013-04-24 18:52:00,
2013-04-24 21:00:00,20.0,2.0,-100.00,WNW,293,14.0,22.0,46,-99.99,,,-99.99,,2013-04-25 01:00:00,
2013-04-24 21:42:00,20.0,2.0,-100.00,WNW,293,14.0,22.0,46,-99.99,,,-99.99,,2013-04-25 01:42:00,
2013-04-24 21:52:00,20.0,2.0,-100.00,WNW,293,14.0,22.0,46,-99.99,,,-99.99,,2013-04-25 01:52:00,
2013-04-24 22:00:00,18.0,2.0,-100.00,WNW,283,10.0,22.0,48,-99.99,,,-99.99,,2013-04-25 02:00:00,